Durango, CO

11:59 PM MDT on April 28, 2017 (GMT -0600)
Durango-La Plata County

Weather History for KDRO - July, 2013

Change the Weather History Date:

Monday, July 8, 2013

  Actual Average Record
Temperature  
Mean Temperature 74 °F 68 °F  
Max Temperature 92 °F 86 °F 98 °F (1989)
Min Temperature 56 °F 50 °F 44 °F (1983)
Degree Days  
Heating Degree Days 0 1  
Month to date heating degree days 0 8  
Since 1 June heating degree days 40 123  
Since 1 July heating degree days 0 8  
Cooling Degree Days 9 3  
Month to date cooling degree days 50 22  
Year to date cooling degree days 105 51  
Since 1 June cooling degree days 105 50  
Growing Degree Days 24 (Base 50)    
Moisture  
Dew Point 43 °F    
Average Humidity 43    
Maximum Humidity 72    
Minimum Humidity 13    
Precipitation  
Precipitation T in 0.04 in 0.39 in (1970)
Month to date precipitation 0.08 0.25  
Year to date precipitation 3.85 6.32  
Sea Level Pressure  
Sea Level Pressure 29.96 in    
Wind  
Wind Speed 8 mph (WSW)    
Max Wind Speed 23 mph    
Max Gust Speed 29 mph    
Visibility 10 miles    
Events Rain    
T = Trace of Precipitation, MM = Missing Value Source: NWS Daily Summary

Daily Weather History Graph

Daily Weather History Graph

Search for Another Location

Airport or City:

Trip Planner

Search our weather history database for the weather conditions in past years. The results will help you decide how hot, cold, wet, or windy it might be!

Date:

Astronomy

Jul. 08, 2013 Rise Set
Actual Time 5:58 AM MDT 8:33 PM MDT
Civil Twilight 5:27 AM MDT 9:04 PM MDT
Nautical Twilight 4:50 AM MDT 9:41 PM MDT
Astronomical Twilight 4:07 AM MDT 10:23 PM MDT
Moon 6:28 AM MDT (7/8) 8:40 PM MDT (7/8)
Length of Visible Light 15h 36m
Length of Day
14h 35m
New Moon, 0% of the Moon is Illuminated
Jul 8
New Moon
Jul 15
First Quarter
Jul 22
Full
Jul 29
Last Quarter
Aug 6
New

Hourly Weather History & Observations

Time (MDT) Temp. Dew Point Humidity Pressure Visibility Wind Dir Wind Speed Gust Speed Precip Events Conditions
12:53 AM 69.1 °F 44.1 °F 40% 29.90 in 10.0 mi WNW 6.9 mph - N/A   Scattered Clouds
1:53 AM 71.1 °F 46.0 °F 41% 29.92 in 10.0 mi SW 12.7 mph 20.7 mph N/A   Clear
2:53 AM 68.0 °F 50.0 °F 52% 29.94 in 10.0 mi West 11.5 mph - 0.00 in Rain Light Rain
3:53 AM 66.0 °F 50.0 °F 56% 29.95 in 10.0 mi Variable 3.5 mph - 0.00 in   Clear
4:53 AM 63.0 °F 48.9 °F 60% 29.96 in 10.0 mi Calm Calm - N/A   Clear
5:53 AM 57.0 °F 48.9 °F 74% 30.00 in 10.0 mi Calm Calm - N/A   Clear
6:53 AM 61.0 °F 48.9 °F 64% 30.00 in 10.0 mi NE 3.5 mph - N/A   Clear
7:53 AM 66.9 °F 48.0 °F 51% 30.00 in 10.0 mi Calm Calm - N/A   Clear
8:53 AM 72.0 °F 50.0 °F 46% 30.01 in 10.0 mi Variable 4.6 mph - N/A   Clear
9:53 AM 77.0 °F 46.9 °F 34% 30.01 in 10.0 mi Variable 4.6 mph - N/A   Clear
10:53 AM 80.1 °F 46.9 °F 31% 29.99 in 10.0 mi WSW 4.6 mph - N/A   Clear
11:53 AM 81.0 °F 45.0 °F 28% 30.02 in 10.0 mi SW 6.9 mph 16.1 mph N/A   Clear
12:53 PM 86.0 °F 44.1 °F 23% 29.96 in 10.0 mi SSW 9.2 mph 17.3 mph N/A   Clear
1:53 PM 90.0 °F 44.1 °F 20% 29.90 in 10.0 mi SW 15.0 mph 23.0 mph N/A   Clear
2:13 PM 89.6 °F 42.8 °F 20% 30.24 in 10.0 mi West 12.7 mph 23.0 mph N/A   Partly Cloudy
2:53 PM 87.1 °F 37.0 °F 17% 29.91 in 10.0 mi West 15.0 mph 23.0 mph N/A   Clear
3:53 PM 88.0 °F 35.1 °F 15% 29.89 in 10.0 mi WSW 11.5 mph 21.9 mph N/A   Clear
4:53 PM 90.0 °F 33.1 °F 13% 29.87 in 10.0 mi West 13.8 mph 21.9 mph N/A   Clear
5:53 PM 89.1 °F 32.0 °F 13% 29.90 in 10.0 mi WSW 12.7 mph - N/A   Clear
6:53 PM 87.1 °F 34.0 °F 15% 29.90 in 10.0 mi WSW 11.5 mph - N/A   Clear
7:53 PM 84.9 °F 37.0 °F 18% 29.89 in 10.0 mi West 12.7 mph - N/A   Clear
8:53 PM 82.9 °F 39.0 °F 21% 29.90 in 10.0 mi West 8.1 mph - N/A   Clear
9:53 PM 79.0 °F 37.9 °F 23% 29.95 in 10.0 mi East 3.5 mph - N/A   Partly Cloudy
10:53 PM 77.0 °F 45.0 °F 32% 29.97 in 10.0 mi East 10.4 mph - N/A   Scattered Clouds
11:53 PM 73.0 °F 46.0 °F 38% 30.01 in 10.0 mi East 6.9 mph - N/A   Clear